Showing default

CONNECTA T2.1, 56210

Orbit data source: Space-Track

CONNECTA T2.1, 56210 is a payload satellite owned by Plan-S (TR) in SSO that was launched on Sat, 15 Apr 2023 UTC via an FALCON 9 launch vehicle from the Air Force Western Test Range (AFWTR). Payload-class satellites include a variety of spacecraft equipped with specific instruments for various scientific and technological missions. These include communications satellites like Starlink; space stations such as the ISS; scientific satellites like the Hubble; Earth observation satellites from companies like Planet Labs, Umbra, and HawkEye 360; GPS; miniature CubeSats for education and research; and military/defense satellites.

Loading next visibility...
Identifier
56210, 2023-054AJ
Orbit
SSO
Last TLE update
7 hours ago
Origin
Manufacturer
Plan-S
Mission
Operational Commercial Communications
Bus & Motor
CUBESAT 6U, Unknown motor
Mass
10 kg wet, ~10 kg dry
Launch date (UTC)
2023-04-15 (2 years ago)
Launch vehicle
FALCON 9
Launch site
Air Force Western Test Range (AFWTR)
Object type
Payload
Rocket body
Debris
Shape & HBR
Box + 2 Pan, 0.3 m
Radar Cross Section
0.080 m², Medium (>0.1 m² and < 1m²)

Expand to show TLE details & history

TLE from 7 hours ago
0 CONNECTA T2.1
1 56210U 23054AJ  25128.97559112  .00053608  00000-0  57323-3 0  9990
2 56210  97.3254  35.8150 0008128  66.1376 294.0734 15.63692607116435
Epoch: 2025-05-08T23:24Z
Definitive object data (Epoch: 2025-05-08T23:24:51.072Z)
Latitude
-0.00003°
Longitude
177.56383°
Altitude
377.917 km
Speed
7.684 km/s
True Right ascension
02h 23m 15s
True Declination
0° 00' 00"
Sunlit
Object was in daylight at TLE epoch
Visualization TLE readout
Latitude
-22.26426°
Longitude
-5.13341°
Altitude
389.497 km
Speed
7.673 km/s
Apparent Right ascension
12h 59m 19s
Apparent Declination
-77° 32' 28"
Sunlit
Object is in full shadow
Visualization observer readout
Local Sidereal Time
14:33:58
Azimuth
185.647° SSW
Elevation
-28.359°
Doppler factor
1
Orbital elements
Apogee altitude
379.394 km
Perigee altitude
368.418 km
Semi-major axis
6,752.043 km
Eccentricity
0.0008128
Inclination
97.3254°
RAAN
35.815°
Arg. of periapsis
66.1376°
True anomaly
293.98833°
Mean anomaly
294.0734°
Eccentric anomaly
294.03087°
Mean motion
3.91192 °/min
BSTAR
0.00057323
Orbital period
92.03 mins
Loading maneuver chart data...
Loading SW <> Apogee altitude chart data...
Loading historical data...
Loading historical data...
Loading historical data...
Loading historical data...
Loading historical data...
Loading historical data...
Loading historical data...

CONNECTA T2.1 Visibility forecast

Observer location: undefined°, undefined°

Span
Click to sort rows by Start time (UTC) header in descending order
Start Az.
Max El. time (UTC)
Max El. Az.
Max El.
End time (UTC)
End Az.
4 mins2025-05-09 17:59:08.459Z184.517° SSW2025-05-09 18:01:08.459Z294.472° NW39.034°2025-05-09 18:03:08.459Z338.382° N
|